Temp_Advection
nan nan nan nan nan nan nan nan nan nan nan nan nan nan nan nan nan nan nan nan nan nan nan nan nan nan nan nan nan nan nan nan nan nan nan nan nan nan nan nan nan nan nan nan nan nan nan nan nan nan nan nan nan nan nan nan nan nan nan nan nan nan nan nan nan nan nan nan nan nan nan nan nan nan
nan 0 0 0 0 -0 -0 -0 -0 0 0 -0 0 -0 -0 -0 0 -0 -0 -0 -0 -0 -0 -0 -0 -0 -0 -0 -0 0 0 0 0 0 0 -0 -0 -0 -0 -0 -0 -0 -0 -0 -0 -0 -0 -0 0 0 0 0 0 0 0 -0 -0 -0 -0 -0 -0 -0 -0 -0 -0 -0 -0 -0 -0 -0 -0 -0 -0 nan
nan 0 0 0 0 -0 0 0 -0 -0 0 -0 0 -0 -0 -0 -0 0 0 -0 -0 -0 -0 -0 -0 -0 -0 -0 0 0 0 0 0 0 0 0 0 0 -0 -0 -0 -0 -0 -0 -0 -0 -0 0 0 0 0 0 0 0 0 -0 -0 -0 -0 -0 -0 -0 -0 -0 -0 -0 -0 -0 -0 -0 -0 -0 -0 nan
nan 0 0 0 0 0 0 0 0 0 0 -0 -0 -0 -0 -0 -0 -0 0 0 0 -0 -0 -0 -0 -0 -0 -0 -0 -0 -0 -0 0 0 0 0 0 0 0 0 -0 0 -0 0 0 0 0 0 0 0 0 0 0 0 0 -0 -0 -0 -0 -0 -0 -0 -0 -0 -0 -0 -0 -0 -0 -0 -0 -0 -0 nan
nan -0 -0 -0 -0 -0 -0 -0 0 0 0 0 -0 -0 -0 -0 -0 -0 -0 0 0 0 -0 -0 -0 -0 -0 -0 -0 -0 -0 0 0 0 0 0 0 0 0 0 0 0 0 0 0 0 0 0 0 0 0 0 0 0 0 0 0 0 0 -0 -0 -0 -0 -0 -0 -0 -0 -0 -0 -0 -0 -0 -0 nan
nan -0 -0 -0 -0 -0 -0 0 0 0 0 -0 -0 0 0 0 -0 -0 -0 -0 0 0 0 0 -0 -0 -0 -0 -0 -0 0 0 0 0 -0 -0 0 0 0 0 0 0 0 0 0 0 0 0 0 0 0 0 0 0 0 0 0 0 0 0 0 0 -0 -0 -0 -0 -0 -0 -0 -0 -0 -0 -0 nan
nan -0 -0 -0 0 0 0 0 0 0 0 0 0 0 0 0 0 -0 -0 -0 -0 0 0 0 0 0 0 0 0 0 0 0 0 0 -0 -0 -0 -0 -0 0 0 0 0 0 0 0 0 0 0 0 0 0 0 0 0 0 0 0 0 0 0 0 0 0 -0 -0 0 -0 -0 -0 -0 -0 -0 nan
nan 0 0 0 0 0 0 0 0 0 0 0 0 0 0 0 -0 -0 -0 -0 -0 0 0 0 0 0 0 0 0 0 0 0 0 -0 -0 -0 -0 -0 -0 -0 -0 -0 -0 -0 -0 -0 0 0 0 0 0 0 0 0 0 0 0 0 0 0 0 0 0 0 0 0 0 0 0 -0 0 -0 -0 nan
nan 0 0 0 0 0 -0 0 0 0 0 0 0 -0 -0 -0 -0 -0 -0 -0 -0 -0 0 0 0 0 0 0 0 0 0 -0 -0 -0 -0 -0 -0 -0 -0 -0 -0 -0 -0 -0 0 0 0 0 0 0 0 0 0 0 0 0 0 0 0 0 0 0 0 0 0 0 0 0 0 0 0 0 -0 nan
nan 0 0 -0 0 0 0 0 0 0 -0 -0 -0 -0 -0 -0 -0 -0 -0 -0 -0 -0 -0 -0 -0 0 0 0 0 0 -0 -0 -0 -0 -0 -0 -0 -0 -0 0 0 0 0 0 0 0 0 0 0 0 0 0 0 0 0 0 0 0 0 0 0 0 0 0 0 0 0 0 0 0 0 0 -0 nan
nan -0 -0 0 0 0 0 0 -0 -0 -0 -0 -0 -0 -0 -0 -0 -0 -0 -0 -0 -0 -0 -0 0 0 0 0 0 -0 -0 -0 -0 -0 0 0 0 0 0 0 0 0 0 0 0 0 0 0 0 0 0 0 0 0 0 0 0 0 0 0 0 0 0 0 0 0 0 0 0 0 0 0 0 nan
nan -0 0 0 0 0 -0 -0 -0 -0 -0 -0 -0 -0 -0 -0 -0 -0 -0 -0 -0 -0 -0 -0 0 0 0 0 0 -0 -0 0 -0 0 0 0 0 0 0 0 0 0 0 0 0 0 0 0 0 0 0 0 0 0 0 0 0 0 0 0 0 0 0 0 0 0 0 0 0 0 -0 -0 -0 nan
nan 0 0 0 0 0 0 -0 -0 -0 -0 0 0 0 0 0 0 0 0 0 0 0 0 0 0 0 0 0 0 0 0 0 0 0 0 0 0 0 0 0 0 0 0 0 0 0 0 0 0 0 0 0 0 0 0 0 0 0 0 0 0 0 0 0 0 1 1 1 1 0 0 0 0 nan
nan 0 0 0 0 0 0 0 0 0 0 0 0 0 0 0 0 0 0 0 0 0 0 0 0 0 0 0 0 0 0 0 0 0 0 0 -0 0 0 0 -0 0 0 0 0 0 0 0 -0 0 0 0 0 0 0 0 0 0 0 0 0 0 0 0 0 1 1 1 1 1 1 0 0 nan
nan 0 0 0 0 0 0 0 0 0 0 0 0 0 0 0 0 0 0 0 0 0 0 0 0 0 0 0 0 0 0 0 0 0 0 0 0 0 0 0 -0 -0 -0 -0 0 0 0 0 0 0 0 0 0 0 0 0 0 0 0 0 0 1 0 0 1 0 1 1 1 2 2 1 1 nan
nan 0 0 0 0 0 0 0 0 0 0 0 0 0 0 0 0 0 0 0 0 0 0 0 0 0 0 0 0 0 0 0 0 0 0 0 0 0 0 1 0 -0 -0 -0 0 0 0 -0 0 0 0 0 0 0 0 0 0 0 0 1 0 0 0 0 0 0 0 0 1 1 2 1 1 nan
nan 0 0 0 0 0 0 0 0 0 0 0 0 0 0 0 0 0 0 0 0 0 0 0 0 0 0 0 0 0 0 0 0 0 0 0 0 -0 0 0 0 -0 -0 -0 0 0 -0 -0 0 -0 -0 0 0 -0 -0 -0 0 0 0 0 0 0 0 0 0 0 0 0 0 1 1 1 1 nan
nan 0 0 0 0 0 0 0 0 0 0 0 0 -0 -0 -0 -0 0 0 0 0 0 0 0 0 0 0 0 0 0 0 0 0 -0 -0 -0 -0 -0 0 0 -0 0 -0 -0 0 0 -0 -0 0 -0 -0 0 0 -0 0 -0 -0 -0 -0 -0 -0 0 0 0 0 0 0 0 0 0 1 1 2 nan
nan 0 0 0 -0 -0 -0 0 0 0 0 -0 -0 -0 -0 -0 -0 -0 -0 -0 0 0 0 0 0 0 0 0 0 0 0 0 -0 -0 -0 -0 -0 0 0 0 -0 -0 -0 -0 0 0 -0 -0 0 -0 -0 0 0 -0 0 0 -0 0 -0 -0 -0 -0 -0 -0 -0 -0 0 0 0 0 1 1 2 nan
nan 0 0 0 0 0 -0 -0 0 0 0 -0 -0 -0 -0 -0 -0 -0 0 0 0 0 0 0 0 0 0 0 0 -0 -0 -0 -0 -0 -0 -0 0 0 0 0 -0 -0 -0 -0 0 0 -0 -0 0 -0 -1 -0 0 -0 0 0 -0 -0 -0 -0 -0 -0 -0 -0 -0 -0 -0 -0 0 0 0 1 2 nan
nan 0 0 0 0 0 0 0 -0 -0 -0 -0 -0 -0 -0 -0 -0 -0 0 0 0 0 0 -0 -0 -0 -0 -0 0 -0 -0 -0 -0 -0 -0 -0 0 -0 0 0 0 -0 -0 -0 0 0 0 -0 0 0 -0 -0 0 0 -0 -0 -0 -0 0 -0 0 0 -0 -0 -0 -0 -0 -0 -0 0 0 1 1 nan
nan 1 1 0 0 0 0 -0 0 0 0 -0 -0 -0 -0 0 0 0 0 0 0 0 0 -0 -0 -0 -0 0 -0 -0 -0 -0 0 0 0 -0 0 -0 0 0 0 0 0 0 0 0 0 -0 -0 0 -0 -0 -0 -0 -0 -0 -0 -0 -0 -0 -0 0 0 -0 -0 -0 -0 -0 -0 0 0 0 1 nan
nan 1 0 0 0 0 -0 -0 -0 -0 -0 -0 -0 -0 0 0 0 0 0 0 0 0 0 0 0 0 0 0 0 -0 -0 -0 0 0 0 0 0 0 0 0 0 0 0 0 0 0 0 -0 -0 -0 -0 -0 -0 -0 -0 -0 -0 -0 -0 -0 -0 -0 -0 -0 -0 -0 -0 -0 -0 -0 0 0 0 nan
nan 0 0 0 0 0 0 -0 -0 -0 -0 0 0 0 0 0 0 0 0 0 0 0 0 0 0 0 0 0 -0 -0 0 0 0 0 0 0 0 0 0 -0 0 0 0 -0 -0 -0 -0 -0 -0 -0 -0 -0 -0 -0 -1 -1 -0 -0 -0 -0 -0 -0 -0 -0 -0 -0 -0 -0 -0 -0 -0 0 0 nan
nan 0 0 0 0 0 0 0 -0 -0 -0 0 0 0 0 0 0 0 0 0 0 0 0 0 0 0 0 0 0 0 0 0 0 0 0 0 0 0 0 0 0 0 0 -0 -0 -0 -0 -0 -0 -0 -0 -0 -0 -0 -0 -1 -1 -0 -0 -0 -0 -0 -0 -0 -0 -0 -0 -0 -0 -0 0 0 0 nan
nan 0 0 0 0 0 0 0 -0 -0 -0 -0 0 0 0 0 0 0 0 0 0 0 0 0 0 0 0 0 0 0 0 0 0 0 0 0 0 0 0 0 0 -0 -0 -0 -0 -0 -0 -0 -0 -0 -0 -0 -0 -0 -0 -0 -0 -1 -1 -1 -0 -0 -0 -0 -0 -0 -0 -0 -0 0 0 0 0 nan
nan 0 0 0 0 0 0 -0 -0 -0 -0 -0 0 0 0 0 0 0 0 0 0 0 0 0 0 0 0 0 0 0 0 0 0 0 0 0 0 0 0 0 -0 -0 -0 -0 -0 -0 -0 -0 -0 -0 -0 -0 -0 -0 -0 -0 -0 -1 -1 -1 -1 -1 -0 -0 -0 -0 -0 -0 -0 0 0 0 0 nan
nan 0 0 0 0 0 0 0 0 -0 -0 0 0 0 0 0 0 0 0 0 -0 0 0 0 0 0 0 0 0 0 0 0 0 0 0 0 0 0 -0 -0 -0 -0 -0 -0 -0 -0 -0 -0 -0 -0 -0 -0 -0 -0 -0 -0 -0 -0 -0 -0 -0 -0 -0 -0 -0 -0 -0 -0 -0 -0 0 0 0 nan
nan 0 0 0 0 0 0 0 -0 -0 -0 0 0 0 0 0 0 0 -0 -0 -0 -0 -0 0 0 0 0 0 0 0 0 0 0 0 0 0 0 0 -0 -0 -0 -0 -0 -0 -0 -0 -0 -0 -0 -0 -0 -0 -0 -0 -0 -0 0 0 -0 -0 -0 -0 -0 -0 -0 -0 -0 -0 0 0 0 0 0 nan
nan 0 0 0 0 0 0 -0 -0 0 0 0 0 0 0 0 0 0 -0 -0 -0 -0 -0 0 0 0 0 0 0 0 -0 -0 0 0 0 0 0 -0 -0 -0 -0 -0 -0 -0 -0 -0 -0 -0 -0 -0 -0 -0 -0 -0 -0 -0 -0 0 -0 -0 -0 -0 -0 -0 -0 -0 -0 -0 -0 0 0 0 0 nan
nan -0 -0 -0 -0 -0 -0 0 0 0 0 0 0 0 0 0 -0 -0 -0 -0 -0 -0 -0 0 0 -0 -0 -0 -0 -0 -0 -0 -0 -0 -0 -0 -0 -0 -0 0 -0 -0 -0 -0 -0 -0 -0 -0 -0 -0 -0 -0 -0 -0 -0 -0 -0 -0 -0 -0 -0 -0 -0 -0 -0 -0 -0 -0 -0 -0 0 0 0 nan
nan -0 -0 -0 -0 0 0 0 0 0 0 0 0 0 0 -0 -0 -0 -0 -0 -0 -0 -0 0 0 -0 -0 -0 -0 -0 -0 -0 -0 -0 -0 0 -0 -0 0 0 -0 -0 -0 -0 -0 -0 -0 -0 -0 -0 -0 -0 -0 -0 -0 -0 -0 -0 -0 -0 -0 -0 -0 -0 -0 -0 -0 -0 -0 -0 -0 0 0 nan
nan -0 0 0 0 0 0 0 0 0 0 0 0 0 0 -0 -0 -0 -0 -0 -0 -0 -0 -0 -0 -0 -0 -0 -0 -0 0 0 0 -0 -0 0 0 0 0 -0 -0 -0 -0 -0 -0 -0 -0 -0 -0 -0 -0 -0 -0 -0 -0 -0 -0 -0 -0 -0 -0 -0 -0 -0 -0 -0 -0 -0 -0 -0 -0 -0 0 nan
nan 0 0 0 0 0 0 0 0 0 0 0 0 0 0 -0 -0 -0 -0 -0 -0 -0 -0 -0 -0 -0 0 0 0 0 0 -0 -0 -0 -0 0 0 0 -0 -0 -0 -0 -0 -0 -0 -0 -0 -0 -0 -0 -0 -0 -0 -0 -0 -0 -0 -0 -0 -0 -0 -0 -0 -0 -0 -0 -0 -0 -0 -0 -0 -0 -0 nan
nan 0 0 0 0 0 0 0 0 0 0 0 0 0 0 0 0 -0 -0 -0 -0 -0 -0 -0 -0 -0 0 0 0 0 0 -0 -0 -0 -0 0 0 -0 -0 -0 -0 -0 -0 -0 -0 -0 -0 -0 0 0 0 0 0 0 -0 -0 -0 -0 -0 -0 -0 -0 -0 -0 -0 -0 -0 -0 -0 -0 -0 -0 -0 nan
nan 0 0 0 0 0 0 0 0 0 0 0 0 0 0 0 0 0 0 0 -0 -0 -0 -0 -0 -0 0 0 0 0 0 -0 -0 -0 -0 -0 -0 -0 -0 -0 -0 -0 -0 -0 -0 -0 -0 -0 0 -0 -0 0 0 0 0 -0 -0 -0 -0 -0 -0 -0 -0 -0 -0 -0 -0 -0 0 0 -0 -0 -0 nan
nan 0 0 0 0 0 0 0 0 0 0 0 0 0 0 0 0 0 0 0 -0 -0 -0 -0 -0 -0 -0 -0 -0 0 -0 -0 -0 -0 -0 -0 -0 -0 -0 0 -0 -0 -0 -0 -0 -0 -0 -0 -0 -0 -0 -0 -0 -0 -0 -0 -0 -0 -0 -0 -0 -0 -0 -0 -0 -0 -0 -0 -0 0 0 -0 -0 nan
nan 0 0 0 0 0 0 0 0 0 0 0 0 0 0 0 0 0 0 -0 -0 -0 0 0 0 0 -0 -0 -0 -0 -0 -0 -0 -0 -0 -0 -0 -0 -0 -0 -0 -0 -0 -0 -0 -0 -0 -0 -0 -0 -0 -0 -1 -1 -0 -0 -0 0 0 -0 -0 -0 -0 -0 -0 -0 -0 -0 -0 -0 0 0 -0 nan
nan 0 0 0 0 0 0 0 0 0 0 0 0 0 0 0 0 0 0 0 0 0 0 0 0 0 -0 -0 -0 -0 -0 -0 -0 -0 0 0 -0 -0 -0 -0 -0 -0 -0 -0 0 -0 -0 -0 -0 -0 -0 -0 -1 -0 -0 -0 -0 0 0 0 -0 -0 -0 -0 -0 -0 -0 -0 -0 -0 -0 -0 -0 nan
nan 0 0 0 0 0 0 0 0 0 0 0 0 0 0 0 0 0 0 0 0 0 0 0 -0 -0 -0 -0 -0 -0 -0 0 -0 -0 -0 -0 -0 -0 -0 -0 0 -0 -0 -0 -0 -0 -0 -0 -0 -0 -0 -0 -0 -0 0 0 0 0 0 0 0 -0 -0 -0 -0 -0 -0 -0 -0 -0 -0 -0 -0 nan
nan 0 0 -0 -0 -0 0 0 0 0 0 0 0 0 0 0 0 0 0 0 0 0 0 -0 -0 -0 -0 -0 -0 -0 0 -0 -0 -0 -0 -0 -0 -0 -0 -0 -0 -0 -0 -0 -0 -0 -0 -0 -0 -0 -0 -0 0 0 0 0 -0 -0 -0 -0 0 -0 -0 -0 -0 -0 -0 -0 -0 -0 -0 -0 -0 nan
nan 0 0 -0 -0 -0 -0 -0 -0 0 0 0 0 0 0 0 0 0 0 0 0 0 0 -0 -0 0 0 0 -0 -0 -0 -0 -0 -0 -0 -0 -0 -0 -0 -0 -0 -0 -0 -0 -0 -0 -0 -0 -0 -0 -0 0 0 0 -0 -0 -0 -0 -0 -0 -0 -0 -0 -0 0 -0 -0 -0 -0 -0 -0 -0 -0 nan
nan -0 -0 -0 -0 -0 -0 -0 -0 -0 0 0 0 0 0 0 0 0 0 0 0 0 0 0 0 0 0 -0 -0 -0 -0 -0 -0 -0 -0 -0 -0 -0 -0 -0 -0 -0 -0 -0 -0 -0 -0 -0 -0 0 -0 -0 -0 -0 -0 -0 -0 -0 -0 -0 -0 -0 -0 -0 -0 0 0 -0 -0 -0 0 -0 -0 nan
nan -0 -0 -0 -0 -0 -0 -0 -0 -0 -0 -0 -0 0 0 0 0 0 0 0 0 0 0 0 0 0 0 -0 -0 -0 -0 -0 -0 -0 -0 -0 -0 -0 -0 -0 -0 -0 -0 -0 -0 -0 -0 -0 0 0 -0 -0 -0 -0 -0 -0 -0 -0 -0 -0 -0 -0 -0 -0 -0 -0 0 -0 -0 -0 -0 0 0 nan
nan nan nan nan nan nan nan nan nan nan nan nan nan nan nan nan nan nan nan nan nan nan nan nan nan nan nan nan nan nan nan nan nan nan nan nan nan nan nan nan nan nan nan nan nan nan nan nan nan nan nan nan nan nan nan nan nan nan nan nan nan nan nan nan nan nan nan nan nan nan nan nan nan nan
Wind_Speed
11 11 11 11 11 10 10 10 9 8 9 9 8 7 7 7 7 7 6 4 5 8 8 7 7 8 7 6 5 4 4 4 4 3 3 3 3 3 3 4 5 5 6 7 8 7 6 5 6 6 5 4 3 2 1 1 2 3 4 5 6 6 7 7 7 7 8 8 9 9 10 10 11 12
11 10 10 11 11 10 10 9 9 9 10 10 9 8 7 8 8 6 4 2 2 6 8 7 7 6 5 4 3 3 3 4 4 3 3 3 3 3 4 4 4 5 6 7 8 8 7 6 6 6 5 4 3 2 0 1 2 3 4 5 6 7 7 7 7 8 8 9 9 10 10 11 12 12
11 11 11 11 11 10 10 10 10 9 10 10 10 10 9 8 9 8 5 2 2 6 8 7 7 5 4 4 3 2 3 4 4 4 4 4 4 4 4 4 4 4 5 6 6 6 6 6 6 5 4 4 3 2 1 2 3 4 5 5 6 6 6 7 7 8 8 8 9 9 9 10 10 11
12 12 12 12 12 11 10 10 10 10 10 10 10 10 9 9 10 10 6 3 3 7 8 7 6 5 4 4 4 3 3 3 4 4 4 4 4 4 4 4 4 4 4 4 4 5 4 4 5 4 4 4 4 3 2 3 4 5 5 5 5 5 6 6 7 7 8 8 8 9 9 9 10 10
12 12 12 12 12 11 11 11 11 11 10 9 9 10 10 11 12 11 8 5 5 8 8 7 7 6 6 6 5 5 4 3 4 5 5 4 3 3 3 3 3 3 3 3 2 3 3 4 5 5 5 5 5 4 4 5 5 6 5 5 5 5 6 6 7 7 8 8 9 9 10 10 11 12
11 12 12 12 12 11 11 11 11 11 10 9 9 10 11 12 13 13 10 7 7 8 8 7 7 6 6 6 5 4 4 3 4 5 6 6 5 4 3 3 3 3 3 3 3 3 4 5 6 6 6 6 6 6 7 7 7 7 7 6 6 6 7 7 8 8 9 9 10 11 11 12 13 14
11 12 12 12 11 11 11 11 11 10 10 9 9 10 11 13 14 14 12 9 7 7 7 7 6 5 5 5 5 4 3 3 4 6 7 7 7 6 5 5 5 5 5 6 6 6 6 7 7 8 8 8 9 9 9 9 9 8 8 8 8 8 9 9 10 10 11 12 13 13 14 15 16 17
11 11 11 11 11 10 10 11 10 10 9 9 10 10 11 13 14 14 13 11 9 8 7 6 5 5 4 5 5 4 3 2 3 5 8 8 8 8 7 7 7 7 7 7 7 8 8 8 8 9 10 10 11 11 11 11 11 11 10 10 11 11 12 13 13 14 15 15 16 17 17 18 18 19
10 10 11 11 10 10 10 10 10 9 9 9 10 11 12 12 13 13 13 11 10 8 7 6 6 5 5 5 5 4 3 3 2 3 6 7 8 8 7 7 6 6 6 6 7 7 8 8 9 10 11 12 13 13 14 14 14 14 14 14 14 14 15 16 17 17 18 19 19 20 20 21 21 22
10 11 11 11 10 10 10 10 9 9 9 8 10 12 12 12 12 12 11 10 9 7 6 6 6 6 6 6 6 5 4 4 3 3 4 5 6 6 6 5 4 4 4 5 5 6 7 8 9 10 12 13 14 15 16 17 17 17 17 17 17 17 18 19 20 21 21 22 22 22 23 23 23 24
11 11 11 11 10 10 9 9 9 9 9 10 11 12 11 11 10 9 8 7 7 6 6 6 6 6 6 6 7 6 6 6 5 5 4 4 5 5 4 4 5 5 5 6 6 7 7 9 10 11 13 14 14 16 17 18 19 20 20 21 21 21 22 22 23 24 24 25 25 25 25 25 26 26
11 12 12 11 10 10 10 10 10 10 11 10 10 10 9 9 8 8 8 8 7 7 7 7 7 7 7 7 7 7 7 7 6 5 5 5 6 6 6 6 7 7 8 8 9 9 9 10 11 12 14 15 15 17 18 20 21 22 23 24 24 24 25 26 26 27 28 28 28 28 28 28 28 29
11 12 12 11 11 11 11 12 12 12 11 10 9 9 8 8 8 8 8 7 7 6 6 7 7 7 8 7 7 7 7 6 6 6 6 7 7 8 9 9 9 9 11 11 11 11 11 12 13 13 14 15 15 16 19 21 22 23 25 26 27 28 29 29 30 31 31 31 31 31 31 30 30 30
11 12 12 13 13 13 13 13 13 13 12 11 9 9 9 8 8 7 6 5 5 4 4 4 5 5 5 6 6 7 7 7 7 7 7 8 9 10 11 11 11 12 12 13 13 12 12 12 13 14 14 15 15 16 18 20 21 22 23 25 27 29 30 31 32 33 33 33 33 33 32 31 31 30
11 13 15 16 16 14 13 13 12 11 11 10 9 8 8 7 7 6 6 5 5 6 5 5 5 5 5 6 7 8 9 9 9 9 10 10 10 11 11 11 11 11 12 12 13 14 13 13 13 14 15 16 17 17 18 20 20 21 23 24 25 26 26 27 28 28 29 29 30 30 30 29 29 28
13 17 19 19 17 15 13 12 10 9 8 7 6 6 6 6 6 6 6 6 7 7 7 8 7 7 8 8 9 9 10 10 10 10 10 11 11 12 12 11 11 11 11 11 13 14 15 15 14 15 15 17 18 18 20 21 21 21 23 24 24 23 22 22 23 22 23 24 25 26 26 27 27 28
17 20 20 19 17 14 12 10 9 7 6 5 4 3 3 3 3 4 5 6 6 7 7 7 8 8 8 9 10 10 11 10 10 10 10 10 10 11 11 11 12 13 13 13 13 14 16 16 15 15 16 16 16 16 16 17 16 16 17 18 17 17 16 17 18 18 19 20 21 21 23 25 26 28
19 20 19 17 14 12 10 9 8 7 5 4 3 2 1 1 1 2 3 4 5 6 6 6 7 7 7 8 10 10 9 8 8 8 9 9 10 11 12 12 14 14 14 14 13 12 14 16 14 14 15 15 14 13 12 11 10 9 10 10 10 11 12 13 14 15 16 17 18 19 21 24 26 27
18 18 16 14 12 11 11 10 9 7 5 4 4 4 5 6 6 5 4 3 4 4 5 5 5 6 6 8 8 8 7 6 7 8 9 10 10 12 12 12 13 14 13 14 11 8 9 12 10 10 12 12 10 9 8 7 7 7 8 9 9 10 11 12 12 13 14 15 16 17 20 22 25 26
18 17 15 14 13 13 12 10 7 6 5 4 3 4 6 7 7 7 6 5 4 4 4 4 5 5 6 8 8 7 6 6 7 8 9 10 10 10 10 9 11 12 12 12 9 5 6 8 5 5 9 9 7 7 7 7 8 9 10 11 12 11 11 11 11 11 12 12 13 15 17 20 22 23
19 17 16 14 13 12 10 6 3 2 4 4 4 5 7 8 8 7 6 5 5 5 4 4 5 6 6 7 8 8 7 7 7 7 7 7 7 8 8 8 8 9 9 10 9 5 5 6 6 5 7 8 8 8 9 10 11 12 13 13 13 12 11 11 11 11 11 10 10 11 13 15 19 21
19 17 16 14 11 8 5 2 3 5 7 7 7 7 9 10 9 7 6 6 6 5 5 4 4 5 5 6 6 6 6 6 5 5 5 6 6 6 6 6 6 7 8 8 8 5 4 6 7 5 6 8 8 8 9 11 12 13 13 13 13 11 10 9 9 10 10 9 9 8 8 10 15 19
16 14 11 9 7 4 4 4 5 6 8 8 7 8 10 11 9 7 6 6 6 6 5 5 4 4 4 4 4 4 5 5 5 5 6 7 6 5 5 5 5 5 5 5 5 3 3 4 5 5 5 6 7 8 9 10 11 11 11 11 9 8 7 7 8 9 9 9 10 9 7 8 12 17
13 11 8 7 7 6 6 6 6 6 7 7 7 8 9 8 6 5 5 5 5 5 5 5 4 4 4 4 5 5 6 7 7 7 7 8 7 5 4 3 3 4 3 3 3 2 3 5 6 7 7 5 6 7 8 10 10 10 10 10 9 8 7 8 9 10 9 9 10 9 8 9 11 15
10 11 10 9 9 7 6 6 5 6 6 6 6 6 5 5 4 4 3 3 3 3 3 3 3 3 4 5 6 6 7 7 7 6 7 7 6 4 2 1 1 2 3 5 5 5 5 7 7 8 8 7 6 7 7 9 10 10 11 12 12 11 11 10 11 11 11 10 10 9 8 9 11 12
8 9 9 9 7 6 4 3 3 4 4 4 4 2 1 2 2 2 2 2 2 2 2 2 2 3 4 4 5 5 5 5 5 5 5 4 2 3 3 3 2 3 4 6 8 7 7 8 8 7 6 6 6 7 6 7 9 11 13 15 15 14 13 12 11 11 12 11 11 11 10 11 12 13
6 5 6 6 5 3 2 2 2 2 2 2 1 1 2 2 2 2 2 2 1 1 1 1 2 2 3 3 3 4 4 4 4 3 2 1 2 2 3 3 2 3 3 5 8 8 7 8 7 6 5 5 6 6 6 6 8 10 12 13 14 13 12 11 10 10 11 11 11 10 11 14 15 16
6 6 6 5 3 2 2 1 1 1 0 0 1 2 3 3 3 2 1 1 0 0 0 1 1 1 2 2 2 2 2 2 2 1 1 1 2 1 2 2 2 3 4 6 7 7 6 6 6 6 6 5 5 5 6 7 7 8 8 9 11 10 9 9 9 9 9 9 9 9 10 12 14 15
6 6 6 5 4 3 2 1 0 1 1 1 1 2 2 3 2 2 1 1 1 0 0 1 1 1 2 2 2 2 2 2 2 2 2 2 2 2 2 2 3 3 3 4 4 5 5 5 6 6 7 6 5 4 5 6 6 7 7 7 7 7 6 7 8 8 8 8 9 9 10 11 12 12
5 5 5 4 3 1 1 1 1 0 1 2 2 2 2 2 2 1 1 2 1 1 1 2 3 4 5 5 5 4 4 3 2 1 2 1 1 1 1 2 2 2 3 4 4 5 6 6 7 6 5 5 5 5 5 6 6 6 6 7 6 6 6 6 7 8 8 9 10 10 10 10 11 11
0 0 1 1 1 1 1 1 2 3 4 4 3 2 2 1 1 2 3 3 3 3 3 4 5 6 6 6 6 6 6 5 4 4 4 3 3 3 4 3 3 3 4 5 6 6 6 6 6 6 5 5 5 5 5 5 6 6 7 7 7 6 6 7 7 8 8 8 8 9 9 9 9 11
3 3 3 2 1 1 3 5 6 5 4 3 3 2 1 0 2 4 4 5 4 4 5 5 5 6 6 6 6 6 5 4 5 5 5 4 3 4 4 3 4 4 5 6 7 7 6 6 6 6 5 4 4 5 5 5 6 6 7 7 7 6 6 7 7 7 8 8 7 8 10 9 10 12
2 2 1 2 3 5 6 7 6 5 4 3 3 2 1 1 3 5 5 5 4 4 5 5 5 5 6 6 6 6 5 5 5 5 4 4 4 5 4 3 4 4 5 6 7 7 7 7 6 6 6 6 6 5 5 5 6 7 6 7 7 7 7 8 8 8 9 8 8 9 10 11 12 13
2 2 2 3 4 6 6 6 6 5 5 4 3 2 2 3 4 5 4 3 3 4 4 4 5 5 6 6 6 6 5 5 5 5 5 6 6 5 5 5 5 6 6 7 7 7 8 8 7 7 7 7 8 8 7 6 6 7 7 7 8 8 9 9 10 10 10 9 10 11 11 11 12 12
4 3 3 3 5 5 6 6 6 6 5 5 4 4 4 5 5 4 2 1 3 4 4 5 5 6 6 7 6 6 6 7 7 6 7 7 6 5 5 6 7 7 8 8 8 9 11 10 8 7 6 6 6 8 9 9 7 7 8 9 9 9 10 11 11 11 11 10 10 11 11 11 11 11
3 3 3 4 5 6 6 6 6 6 6 6 6 6 6 5 4 2 1 2 3 4 4 5 6 6 6 7 6 6 7 7 7 7 6 6 6 7 7 8 9 10 10 10 10 11 11 9 8 7 6 6 6 7 11 12 11 10 9 10 10 10 11 12 12 11 11 12 12 11 11 11 11 11
4 4 5 6 7 7 7 7 7 8 8 8 7 6 5 4 3 3 3 3 3 4 5 6 6 6 6 6 7 7 7 7 7 7 7 7 8 10 11 11 12 12 11 11 10 10 8 8 8 8 7 7 7 7 9 12 13 12 12 11 11 11 12 12 13 12 11 12 12 12 12 12 12 12
5 6 7 7 8 8 9 9 8 8 7 7 6 5 5 5 5 5 4 4 4 5 6 6 7 7 8 8 8 8 8 8 8 8 9 10 11 12 12 13 12 11 10 9 8 7 7 7 8 9 9 9 9 9 9 10 10 12 14 13 12 12 11 11 11 11 11 11 11 12 12 11 12 12
5 7 7 7 7 7 7 6 6 6 6 6 6 5 6 6 6 5 5 5 5 6 6 7 7 8 9 9 9 8 8 8 8 9 10 11 12 13 13 12 11 9 7 6 5 6 6 7 8 9 9 9 8 8 9 9 8 10 13 14 13 12 11 11 11 11 11 11 12 13 13 12 11 11
3 4 5 5 5 5 6 6 6 6 6 5 5 5 5 5 5 5 6 6 6 7 7 7 8 8 8 8 9 8 8 8 9 11 12 12 12 12 11 10 8 6 5 5 5 5 5 6 7 8 8 7 7 7 8 9 8 9 11 12 12 12 11 11 12 12 12 14 14 15 15 14 12 11
5 4 5 5 6 6 6 5 5 5 5 5 5 5 6 6 6 6 7 7 7 7 8 8 8 8 8 9 9 9 9 10 11 12 12 12 11 10 9 8 7 5 4 4 5 5 6 7 8 8 7 7 8 8 9 8 9 9 10 11 12 12 11 10 11 12 13 15 16 16 15 14 13 12
6 6 5 5 5 5 4 4 5 5 6 7 7 7 7 7 8 8 8 8 8 8 8 8 8 8 8 9 10 10 11 11 11 11 11 11 10 9 8 7 6 5 5 5 5 6 7 7 7 6 7 7 7 7 7 8 9 10 10 11 12 13 12 11 12 13 13 14 15 15 14 14 13 13
7 6 5 4 4 4 4 4 5 6 7 8 8 8 8 8 8 8 9 8 8 7 7 8 8 9 9 10 11 11 10 10 10 9 10 9 9 8 6 6 5 6 6 6 5 6 6 6 6 6 5 5 6 6 7 8 9 9 11 12 13 14 14 13 12 13 15 16 16 15 14 14 13 13
7 6 5 4 3 3 4 5 6 7 7 8 9 9 8 8 8 8 8 8 8 8 9 10 10 10 10 9 9 9 8 8 8 8 8 8 8 7 6 6 6 8 9 7 6 6 7 7 8 7 6 6 7 7 7 8 9 10 12 14 14 14 15 14 13 13 15 16 16 15 15 14 14 14
7 6 5 5 4 3 3 5 6 7 8 9 9 9 9 9 9 9 10 10 10 10 10 10 10 9 8 7 7 7 7 7 7 7 7 6 6 6 6 5 6 8 10 9 7 7 7 7 8 9 8 7 8 8 8 9 10 11 13 14 13 13 15 15 14 13 12 11 12 13 14 15 15 15
Wind_Direction
199 198 190 183 183 189 193 193 193 191 189 185 178 180 188 183 175 176 185 206 220 215 207 209 220 223 227 239 247 253 249 235 220 204 184 166 167 169 173 191 197 182 175 188 194 187 177 175 176 175 175 185 192 180 122 44 28 24 17 14 13 10 8 5 359 353 351 348 347 345 342 341 339 338
201 202 192 185 188 194 193 192 195 193 191 191 187 184 183 181 180 176 169 158 179 194 195 193 202 212 220 220 219 231 231 215 197 173 151 137 132 129 129 149 178 184 176 176 179 179 179 182 183 183 189 195 197 190 154 18 4 353 351 354 356 357 356 354 351 350 349 347 346 344 343 341 339 337
201 203 199 197 198 198 196 195 196 192 191 193 192 191 185 177 177 176 162 110 136 173 180 186 188 189 197 200 194 207 216 200 180 162 147 141 135 124 119 126 146 163 164 162 164 172 179 186 188 192 203 207 207 212 254 312 320 323 328 335 339 342 344 344 344 344 342 341 340 340 340 338 335 333
202 203 203 204 204 203 203 200 198 194 190 192 192 191 188 177 171 169 156 109 131 161 165 172 178 175 180 183 172 177 197 200 190 176 161 153 152 143 135 135 140 144 147 153 162 173 183 195 202 210 223 224 225 237 262 282 293 300 308 317 325 331 332 331 330 329 328 329 329 330 331 331 329 327
202 204 204 205 206 207 205 202 202 198 192 193 193 190 188 179 169 161 152 133 141 158 157 152 154 155 157 158 159 169 185 201 203 193 179 170 168 164 162 162 159 154 151 157 174 197 211 217 219 227 239 239 239 250 263 273 281 287 294 303 311 315 315 316 317 317 317 319 321 324 326 327 326 323
199 200 201 204 206 206 205 203 201 199 193 193 194 192 188 179 167 158 155 150 148 158 162 152 142 140 146 158 170 183 193 211 216 205 194 185 180 180 183 193 202 205 204 204 211 223 232 233 233 237 243 245 249 257 266 274 279 283 287 292 296 298 300 303 304 306 308 311 314 318 319 320 319 319
196 199 201 203 204 203 201 198 195 192 190 190 191 189 183 176 168 160 159 156 152 161 167 161 152 147 151 168 186 202 216 231 225 210 203 198 194 195 197 206 216 221 224 225 224 227 233 238 240 244 248 251 253 259 266 271 274 276 278 282 284 287 291 293 295 296 299 302 305 307 309 311 312 313
196 197 200 201 200 196 192 191 189 185 182 185 187 183 178 174 170 165 162 161 162 167 171 173 173 175 181 192 202 215 232 246 231 214 210 209 208 208 209 212 216 219 222 226 229 231 234 238 242 247 251 255 256 260 265 268 270 273 275 278 281 283 286 288 290 291 294 297 299 302 305 307 308 310
189 188 191 194 193 190 187 186 185 180 177 182 186 182 176 174 172 169 167 168 171 176 185 193 197 202 212 221 226 231 238 243 236 214 211 213 216 218 218 217 218 220 223 229 234 239 244 249 252 256 258 261 263 266 268 270 272 274 276 277 278 280 283 285 287 289 291 294 297 299 302 304 305 307
177 177 181 186 187 186 184 183 183 180 178 178 179 175 171 171 172 172 173 177 182 189 204 214 220 225 230 238 243 243 240 235 226 214 212 211 212 215 217 218 223 230 238 246 251 256 261 263 265 266 267 268 269 271 272 274 275 275 275 276 276 277 280 281 284 286 289 292 294 296 298 300 301 303
174 174 176 178 178 176 174 175 177 175 171 166 166 168 167 169 175 180 185 192 199 207 220 231 242 246 243 244 245 242 241 240 233 226 226 225 222 224 228 232 239 248 257 267 270 271 273 274 275 275 274 274 276 277 278 278 278 278 277 277 277 278 279 280 282 285 287 290 292 293 294 296 297 298
177 177 176 176 175 171 164 161 159 161 164 164 166 170 172 177 186 195 201 206 212 217 224 233 244 251 250 247 241 238 241 248 251 247 246 250 251 253 256 258 264 272 277 282 282 281 282 282 282 281 281 281 283 284 284 283 282 281 279 279 278 278 278 279 281 283 286 287 289 290 291 293 294 295
183 181 180 177 173 166 157 151 151 155 158 158 162 169 173 178 184 190 196 201 208 214 222 233 242 249 253 248 241 240 244 254 263 260 257 263 268 270 274 274 276 279 281 283 283 283 284 281 279 279 279 280 282 282 282 281 281 281 281 281 281 280 280 280 280 281 282 284 285 286 288 288 290 290
186 182 177 168 161 157 153 150 150 152 152 149 153 162 166 167 169 173 178 186 198 214 229 242 251 259 261 254 246 246 250 254 258 258 259 265 270 275 279 280 277 276 277 279 280 281 280 279 280 281 281 282 281 279 278 279 280 280 281 281 280 280 279 279 279 280 281 282 283 283 283 283 283 283
184 174 164 157 154 153 153 153 153 153 154 155 159 167 171 174 177 184 192 201 212 220 227 237 246 254 258 255 250 250 252 253 253 255 256 259 265 273 278 280 279 277 277 280 285 288 288 287 288 287 287 285 282 281 281 281 280 279 279 279 279 278 278 277 277 277 277 277 276 276 275 275 275 273
175 165 160 156 155 156 156 155 155 155 158 162 170 179 184 190 196 201 209 217 222 226 230 238 243 246 252 257 259 259 259 258 257 256 258 262 269 277 281 285 290 292 292 291 293 296 296 296 295 293 289 286 285 285 284 283 283 282 280 279 279 280 280 279 277 276 274 273 272 271 271 271 272 271
162 159 159 158 157 159 159 158 155 154 155 155 161 170 178 193 206 214 221 226 230 233 237 243 247 250 254 260 265 267 266 266 265 265 269 273 278 282 286 289 292 295 295 292 291 294 295 296 298 296 292 290 290 291 289 289 290 288 283 282 284 287 288 285 282 280 278 277 275 273 273 273 273 270
157 159 161 160 159 156 153 150 145 138 131 120 107 84 28 347 314 282 262 253 249 247 244 246 250 254 256 259 263 263 261 264 270 273 279 284 287 288 289 287 287 288 290 290 291 291 290 292 295 293 290 292 295 295 295 296 295 291 289 292 295 297 297 296 293 289 286 283 278 273 271 270 268 264
160 162 162 158 153 145 136 132 125 112 98 79 52 29 11 358 347 335 315 295 280 269 262 260 260 260 262 265 267 265 258 260 269 275 281 284 284 286 286 285 286 289 291 292 292 287 283 286 289 287 285 289 294 295 295 294 295 300 306 307 306 305 303 300 297 296 294 293 289 283 278 273 268 263
167 166 161 152 145 140 135 130 118 99 80 59 33 16 5 353 341 330 318 306 295 284 277 272 265 263 265 270 277 284 282 274 272 275 278 279 279 281 284 286 289 291 293 292 289 284 279 280 281 283 284 286 290 293 292 291 297 304 308 308 308 311 310 308 309 310 308 305 300 293 286 279 271 261
173 168 159 150 145 146 147 144 121 57 22 8 354 345 342 334 322 309 298 291 286 285 286 280 272 274 278 281 286 292 293 287 281 278 278 278 278 281 283 284 282 281 283 284 283 280 275 274 276 281 283 282 283 287 289 291 295 299 301 304 307 309 310 314 319 320 320 321 317 305 294 282 271 262
171 163 154 152 156 164 181 228 310 327 328 327 327 327 321 311 299 285 277 275 279 286 289 280 275 279 283 285 289 291 293 292 287 281 275 272 275 278 275 272 270 266 263 264 268 272 279 283 286 292 294 292 294 298 300 301 303 305 307 308 308 307 307 312 318 321 324 331 336 330 311 287 274 268
159 157 155 161 178 210 251 276 299 312 311 305 300 298 297 292 284 274 266 267 274 280 278 270 268 271 272 276 281 287 293 292 283 273 267 265 267 270 267 266 266 260 255 261 267 277 302 310 312 318 318 311 312 317 320 319 320 321 322 323 321 318 315 316 320 325 328 332 341 346 332 302 284 274
169 177 186 197 213 239 262 271 279 285 282 278 278 283 284 280 269 258 254 257 265 270 271 271 273 275 275 272 272 275 276 274 270 263 259 260 261 263 268 273 260 239 247 291 308 319 334 337 335 331 330 330 326 327 329 328 328 330 332 335 337 335 330 328 328 332 335 334 340 344 332 311 296 282
200 209 214 219 228 243 257 263 269 272 273 276 279 279 274 259 244 235 232 238 248 259 269 274 272 273 272 268 270 272 270 269 266 256 255 265 269 259 240 169 180 239 280 312 317 323 330 327 327 332 336 337 335 337 339 332 332 337 338 339 342 341 338 336 334 335 336 332 330 328 314 297 289 284
216 218 218 222 230 238 245 258 278 285 284 282 274 255 211 200 204 205 207 215 234 253 265 268 265 268 271 271 274 274 269 267 263 256 263 276 264 231 233 235 254 281 299 310 311 318 326 323 324 336 346 343 338 343 347 338 337 343 344 341 341 340 338 337 337 336 336 332 323 310 287 267 269 278
215 219 227 229 230 236 247 271 290 291 284 273 239 133 133 151 165 178 192 196 216 235 234 250 260 260 264 267 267 262 258 253 251 257 273 258 208 229 269 286 298 305 316 322 325 334 342 338 336 341 347 349 346 343 344 341 340 343 342 336 334 334 333 332 329 328 328 326 319 301 271 254 262 277
248 244 237 224 209 209 217 230 272 296 303 117 115 117 126 128 124 127 132 117 94 184 205 231 245 236 234 237 230 228 225 215 219 217 180 183 201 239 282 311 334 335 335 336 341 352 357 350 344 337 332 341 348 338 335 337 338 340 342 338 333 330 328 324 319 315 314 314 313 303 283 270 273 282
218 207 198 191 189 194 197 187 56 32 70 110 122 125 126 122 119 115 85 57 30 317 256 192 184 158 146 144 143 149 150 147 159 182 187 203 243 262 280 315 337 344 349 352 357 3 359 347 341 335 330 336 346 349 349 345 340 342 349 352 341 330 329 329 321 313 309 307 303 298 293 292 292 294
188 185 181 181 186 180 125 65 62 142 197 190 184 164 145 140 133 106 56 36 25 28 87 114 121 120 117 112 109 111 111 111 124 167 187 222 289 320 20 31 35 33 22 14 5 359 352 344 343 347 354 359 3 11 13 3 352 349 353 358 350 335 334 336 327 316 312 310 305 300 298 299 300 300
168 63 38 23 23 44 68 139 194 203 196 184 175 162 148 138 63 34 26 24 34 63 97 113 117 114 108 100 97 100 97 88 82 90 97 83 59 67 73 59 43 30 11 359 356 354 353 352 354 2 18 22 13 10 10 3 355 349 347 350 350 341 338 339 332 323 320 318 312 306 305 303 300 300
8 8 360 349 355 160 178 188 193 194 189 180 176 165 152 90 10 8 10 17 37 76 101 109 107 103 102 100 97 99 100 98 93 93 96 95 80 75 69 40 29 33 20 2 358 358 358 359 360 2 10 16 9 359 355 353 353 351 349 351 355 350 345 345 340 329 325 324 316 305 300 296 294 295
25 35 92 158 166 176 187 196 201 203 202 194 189 189 208 326 345 349 356 11 40 78 89 91 93 98 103 106 108 113 118 121 119 108 100 93 79 69 62 45 40 51 48 33 23 18 13 11 13 19 28 31 28 22 17 9 2 359 356 356 355 349 341 340 337 329 325 323 315 307 301 297 295 294
126 110 133 167 182 188 195 205 211 210 206 201 204 222 261 305 324 331 345 11 57 82 84 90 98 105 114 120 123 126 125 119 114 96 77 75 74 68 65 60 53 53 56 51 42 38 39 36 33 36 41 39 33 31 34 33 19 5 358 356 352 344 337 334 332 328 328 324 316 311 308 304 301 297
151 151 166 191 200 200 203 210 212 207 203 207 222 247 272 291 301 306 326 53 91 89 88 100 109 118 131 137 134 125 113 105 98 84 76 78 77 66 59 59 58 60 65 65 59 53 53 53 50 46 46 41 29 15 11 14 18 10 358 350 345 339 333 331 329 326 325 324 320 317 314 310 309 305
164 173 190 204 209 209 208 209 210 211 218 230 246 260 268 271 266 244 177 127 110 97 96 105 112 121 134 141 136 121 107 100 97 92 89 82 70 64 66 70 74 75 73 70 64 57 52 50 47 44 40 35 27 11 0 359 3 5 0 351 344 338 333 331 331 327 322 320 320 318 314 310 309 307
195 199 205 209 211 211 213 218 226 232 238 244 247 247 242 228 208 188 168 139 118 107 104 104 105 110 120 129 130 121 111 106 104 98 88 78 75 81 83 81 79 77 71 65 60 57 52 44 38 37 32 23 18 10 1 355 353 354 357 355 347 340 337 335 334 331 326 322 320 317 313 310 307 304
210 213 217 219 222 225 228 230 231 231 228 224 216 205 195 187 180 174 158 138 120 112 109 106 103 103 107 115 120 118 111 106 99 89 84 86 91 94 90 81 74 72 68 62 55 50 46 38 33 33 29 20 9 357 351 349 348 348 352 356 353 347 347 345 341 339 337 333 329 326 320 312 306 303
206 213 217 219 219 216 210 204 197 190 184 180 175 172 173 172 168 159 144 129 120 116 115 111 105 101 101 104 109 109 105 101 96 92 94 96 95 92 86 78 72 68 66 63 54 40 31 28 27 25 19 12 2 350 344 346 348 347 347 349 351 356 360 1 357 353 352 348 343 340 336 331 323 316
154 176 182 179 173 164 158 156 157 157 158 158 161 164 160 153 147 142 134 124 117 113 110 107 102 100 101 102 103 102 100 99 99 99 97 93 88 86 83 79 73 67 63 57 46 31 16 10 7 4 359 356 357 2 4 3 360 355 348 344 348 358 4 4 1 357 352 350 349 346 342 340 339 335
112 118 125 127 127 130 133 136 139 142 143 143 142 138 131 126 124 123 121 115 110 107 103 101 101 103 105 104 103 104 103 101 98 94 90 86 84 83 82 78 73 67 58 43 29 11 349 338 337 340 349 359 7 14 17 10 1 358 357 353 353 356 354 348 346 346 346 349 351 346 339 335 333 331
92 92 95 101 108 115 118 120 121 122 124 124 118 111 110 112 112 111 110 107 105 104 104 107 110 110 107 104 102 102 100 97 93 87 82 82 86 88 86 82 74 61 44 25 10 353 335 329 337 352 4 11 16 16 14 9 3 3 4 1 357 355 350 340 338 340 342 347 350 347 339 333 329 326
79 76 75 79 90 100 104 107 112 115 118 117 112 107 109 112 112 111 110 107 108 113 117 119 118 114 109 106 102 98 96 94 91 85 81 84 92 95 90 82 69 53 43 33 22 15 9 11 26 33 24 19 23 22 16 13 10 5 2 358 355 354 351 344 339 342 342 342 345 347 345 340 335 333
68 65 65 68 78 97 108 109 110 113 116 118 116 113 113 115 115 114 114 116 122 127 127 124 121 118 114 109 102 98 98 99 96 91 85 86 91 92 88 80 62 46 45 48 44 39 38 37 36 35 33 31 32 28 19 15 12 3 357 356 355 355 353 347 342 342 341 337 337 345 351 350 348 346
56 59 65 69 75 95 119 122 119 118 118 120 121 119 119 119 120 121 123 126 129 130 129 126 123 120 116 112 106 105 107 106 103 99 94 90 91 90 86 81 64 46 43 47 50 48 45 41 37 37 40 38 30 23 17 12 7 360 356 357 359 360 359 357 353 349 345 339 338 348 356 358 358 358
Height
1551 1553 1554 1555 1556 1557 1558 1559 1560 1561 1562 1564 1565 1566 1568 1569 1570 1571 1571 1572 1572 1572 1573 1573 1573 1574 1574 1575 1576 1576 1576 1577 1577 1577 1577 1577 1578 1578 1578 1579 1579 1580 1581 1581 1582 1583 1584 1585 1586 1587 1587 1588 1589 1589 1590 1590 1591 1591 1591 1592 1592 1592 1592 1592 1593 1593 1593 1593 1593 1592 1592 1592 1591 1591
1550 1552 1553 1554 1555 1556 1557 1558 1559 1560 1561 1563 1564 1565 1566 1568 1569 1570 1571 1571 1571 1571 1572 1572 1573 1573 1574 1574 1575 1575 1576 1576 1576 1576 1576 1577 1577 1577 1578 1578 1579 1580 1580 1581 1582 1583 1584 1584 1585 1586 1587 1587 1588 1589 1589 1590 1590 1590 1591 1591 1591 1591 1591 1592 1592 1592 1592 1592 1592 1592 1591 1591 1591 1590
1549 1550 1551 1553 1554 1555 1556 1557 1558 1559 1560 1562 1563 1564 1565 1566 1567 1569 1570 1570 1570 1570 1571 1572 1572 1573 1573 1574 1574 1575 1575 1576 1576 1576 1576 1576 1576 1577 1577 1578 1579 1580 1580 1581 1582 1583 1583 1584 1585 1585 1586 1587 1587 1588 1588 1589 1589 1590 1590 1590 1590 1590 1590 1591 1591 1591 1591 1591 1591 1591 1591 1590 1590 1590
1548 1549 1550 1551 1552 1553 1555 1556 1557 1558 1559 1561 1562 1563 1564 1565 1566 1567 1569 1569 1569 1570 1571 1571 1572 1573 1573 1574 1574 1575 1575 1575 1575 1575 1576 1576 1576 1576 1577 1578 1578 1579 1580 1581 1581 1582 1583 1584 1584 1585 1586 1586 1587 1587 1588 1588 1589 1589 1589 1589 1589 1589 1589 1589 1590 1590 1590 1590 1590 1590 1590 1589 1589 1589
1547 1548 1549 1550 1551 1552 1553 1555 1556 1557 1558 1560 1561 1562 1563 1564 1565 1566 1568 1569 1570 1570 1571 1571 1572 1572 1573 1573 1574 1574 1575 1575 1575 1575 1575 1576 1576 1576 1577 1577 1578 1579 1580 1580 1581 1582 1582 1583 1584 1585 1585 1586 1586 1587 1587 1588 1588 1588 1588 1588 1588 1588 1588 1588 1589 1589 1589 1589 1589 1589 1589 1588 1588 1588
1546 1547 1548 1549 1550 1551 1552 1554 1555 1556 1557 1559 1560 1561 1562 1563 1564 1566 1567 1568 1569 1570 1571 1571 1572 1572 1573 1573 1574 1574 1574 1574 1575 1575 1575 1575 1576 1576 1576 1577 1578 1578 1579 1580 1580 1581 1582 1583 1583 1584 1585 1585 1585 1586 1586 1587 1587 1587 1587 1587 1587 1587 1587 1587 1587 1587 1587 1587 1587 1587 1587 1587 1587 1586
1545 1546 1547 1548 1549 1550 1552 1553 1554 1555 1556 1558 1559 1560 1561 1563 1564 1565 1566 1568 1569 1570 1571 1571 1572 1572 1572 1573 1573 1574 1574 1574 1574 1574 1575 1575 1575 1576 1576 1576 1577 1578 1578 1579 1580 1580 1581 1582 1582 1583 1584 1584 1585 1585 1585 1586 1586 1586 1586 1586 1586 1586 1586 1586 1586 1586 1586 1586 1586 1586 1586 1586 1585 1585
1545 1546 1547 1548 1549 1550 1551 1552 1553 1554 1556 1557 1558 1559 1561 1562 1563 1565 1566 1567 1568 1569 1570 1571 1571 1572 1572 1572 1573 1573 1573 1573 1573 1574 1574 1574 1575 1575 1576 1576 1576 1577 1578 1578 1579 1579 1580 1581 1581 1582 1582 1583 1583 1584 1584 1584 1585 1585 1585 1585 1585 1585 1585 1585 1585 1585 1585 1585 1585 1584 1584 1584 1584 1583
1544 1545 1546 1547 1549 1550 1551 1552 1553 1554 1555 1556 1557 1559 1560 1562 1563 1564 1565 1566 1567 1568 1569 1570 1571 1571 1572 1572 1572 1573 1573 1573 1573 1573 1573 1574 1574 1575 1575 1575 1576 1576 1577 1577 1578 1579 1579 1580 1580 1581 1581 1581 1582 1582 1583 1583 1583 1583 1583 1583 1583 1583 1583 1583 1583 1583 1583 1583 1583 1582 1582 1582 1581 1581
1543 1545 1546 1547 1548 1549 1550 1551 1552 1553 1554 1555 1557 1558 1559 1561 1562 1564 1565 1566 1566 1567 1568 1569 1569 1570 1571 1571 1572 1572 1572 1572 1572 1573 1573 1573 1574 1574 1575 1575 1575 1576 1576 1577 1577 1578 1578 1578 1579 1579 1579 1580 1580 1580 1581 1581 1581 1581 1581 1581 1581 1581 1581 1581 1581 1581 1581 1580 1580 1580 1580 1579 1579 1578
1543 1544 1545 1546 1547 1549 1550 1551 1552 1553 1554 1555 1556 1557 1559 1560 1561 1563 1564 1565 1566 1566 1567 1568 1568 1569 1570 1570 1570 1571 1571 1571 1572 1572 1572 1573 1573 1574 1574 1575 1575 1575 1575 1576 1576 1576 1577 1577 1577 1577 1577 1577 1578 1578 1578 1579 1579 1579 1579 1579 1579 1579 1579 1579 1578 1578 1578 1578 1577 1577 1577 1577 1576 1576
1542 1544 1545 1546 1547 1548 1549 1550 1551 1552 1553 1554 1556 1557 1558 1559 1560 1562 1563 1564 1564 1565 1566 1567 1567 1567 1568 1568 1569 1569 1570 1570 1570 1571 1571 1572 1573 1573 1573 1574 1574 1574 1574 1574 1574 1574 1575 1575 1575 1575 1575 1575 1575 1576 1576 1576 1576 1576 1576 1576 1576 1576 1576 1575 1575 1575 1575 1574 1574 1574 1573 1573 1573 1573
1542 1543 1544 1545 1546 1547 1548 1549 1550 1551 1552 1554 1555 1556 1557 1558 1559 1560 1562 1562 1563 1564 1565 1565 1566 1566 1566 1567 1567 1568 1568 1569 1569 1570 1570 1571 1571 1571 1572 1572 1572 1572 1572 1572 1572 1572 1572 1572 1572 1572 1572 1572 1572 1573 1572 1572 1573 1573 1573 1573 1573 1572 1572 1572 1572 1572 1571 1571 1570 1570 1570 1570 1570 1569
1541 1542 1544 1545 1546 1547 1548 1549 1550 1551 1552 1553 1555 1556 1557 1558 1559 1560 1561 1561 1562 1563 1564 1564 1565 1565 1565 1565 1566 1566 1567 1567 1568 1568 1568 1569 1569 1569 1569 1570 1570 1570 1570 1570 1570 1570 1570 1570 1569 1569 1569 1569 1569 1570 1569 1569 1569 1569 1569 1569 1569 1568 1568 1568 1568 1568 1568 1567 1567 1567 1566 1566 1566 1566
1541 1542 1543 1545 1546 1547 1548 1549 1550 1551 1552 1553 1554 1555 1556 1557 1558 1559 1559 1560 1561 1561 1562 1563 1563 1563 1564 1564 1564 1564 1565 1565 1566 1566 1566 1566 1567 1567 1567 1568 1567 1568 1568 1568 1568 1567 1568 1568 1568 1568 1567 1567 1567 1567 1566 1566 1566 1566 1565 1565 1564 1564 1564 1564 1563 1563 1563 1563 1562 1562 1562 1562 1562 1562
1540 1541 1543 1544 1546 1547 1548 1550 1550 1551 1552 1553 1554 1555 1556 1556 1557 1557 1558 1558 1559 1559 1560 1560 1561 1561 1562 1562 1562 1563 1563 1563 1564 1564 1564 1565 1565 1565 1566 1566 1565 1565 1566 1566 1566 1566 1565 1565 1565 1565 1565 1564 1563 1563 1563 1562 1562 1562 1561 1561 1560 1560 1560 1560 1559 1559 1559 1558 1558 1557 1557 1557 1557 1557
1540 1541 1543 1544 1546 1547 1548 1549 1550 1551 1552 1553 1554 1554 1555 1555 1556 1556 1557 1557 1557 1558 1558 1559 1559 1559 1560 1560 1561 1561 1561 1562 1562 1562 1562 1563 1563 1564 1564 1564 1563 1563 1563 1564 1564 1564 1562 1562 1563 1562 1561 1561 1561 1560 1560 1559 1559 1559 1558 1558 1558 1558 1557 1557 1556 1556 1555 1555 1554 1554 1553 1553 1552 1552
1540 1542 1543 1544 1545 1547 1548 1549 1550 1551 1552 1552 1553 1554 1554 1554 1555 1555 1555 1555 1556 1556 1557 1557 1557 1558 1558 1559 1559 1559 1559 1560 1561 1561 1561 1561 1562 1562 1562 1562 1561 1561 1561 1561 1562 1563 1561 1560 1561 1560 1559 1559 1558 1558 1558 1557 1557 1557 1556 1556 1556 1555 1555 1554 1554 1553 1552 1552 1551 1551 1550 1550 1549 1549
1540 1542 1543 1544 1545 1546 1547 1549 1550 1551 1551 1552 1552 1553 1553 1553 1553 1554 1554 1554 1554 1555 1555 1556 1556 1556 1557 1557 1557 1558 1559 1559 1560 1560 1560 1560 1560 1560 1560 1560 1559 1559 1559 1559 1560 1561 1559 1559 1559 1558 1557 1557 1557 1556 1556 1555 1555 1555 1554 1554 1554 1553 1553 1552 1551 1551 1550 1549 1549 1548 1548 1547 1548 1548
1540 1542 1543 1544 1545 1546 1547 1548 1549 1550 1550 1551 1552 1552 1552 1552 1552 1552 1552 1552 1553 1553 1554 1554 1555 1555 1555 1556 1556 1557 1557 1558 1558 1558 1558 1558 1558 1558 1558 1558 1558 1557 1557 1557 1557 1558 1558 1557 1557 1556 1555 1555 1555 1554 1554 1554 1553 1553 1552 1552 1551 1551 1550 1550 1549 1549 1548 1547 1546 1546 1545 1545 1546 1546
1540 1541 1542 1543 1544 1545 1546 1547 1547 1548 1549 1550 1550 1550 1551 1551 1551 1551 1551 1551 1551 1551 1552 1552 1553 1553 1554 1554 1554 1555 1555 1555 1556 1556 1556 1556 1556 1557 1557 1557 1557 1556 1555 1555 1555 1556 1556 1555 1555 1555 1554 1553 1553 1553 1552 1552 1551 1551 1550 1550 1549 1549 1549 1548 1547 1547 1546 1545 1544 1544 1544 1544 1544 1544
1539 1540 1541 1542 1543 1544 1545 1546 1546 1546 1547 1547 1548 1548 1549 1549 1549 1549 1549 1550 1550 1550 1550 1551 1551 1551 1552 1552 1552 1553 1553 1554 1554 1554 1555 1555 1555 1556 1556 1556 1555 1554 1554 1554 1554 1554 1554 1553 1553 1553 1553 1552 1552 1552 1551 1550 1549 1549 1548 1548 1547 1547 1547 1546 1546 1545 1544 1544 1543 1542 1542 1542 1542 1542
1539 1540 1541 1542 1543 1544 1544 1545 1545 1545 1546 1546 1546 1547 1547 1547 1547 1547 1548 1548 1549 1549 1549 1549 1549 1550 1550 1550 1551 1551 1551 1552 1552 1553 1553 1554 1554 1554 1554 1554 1554 1553 1553 1552 1552 1553 1552 1552 1552 1552 1552 1552 1551 1550 1549 1549 1548 1547 1547 1546 1546 1545 1545 1544 1544 1544 1543 1543 1542 1541 1541 1541 1541 1541
1540 1540 1540 1541 1542 1543 1543 1544 1544 1544 1544 1545 1545 1545 1545 1545 1545 1546 1546 1547 1547 1548 1548 1548 1548 1548 1549 1549 1549 1550 1550 1550 1551 1551 1552 1552 1552 1552 1552 1552 1552 1552 1551 1551 1551 1551 1551 1551 1550 1550 1550 1550 1550 1549 1548 1547 1547 1546 1546 1545 1544 1544 1543 1543 1543 1542 1541 1541 1540 1540 1539 1540 1540 1540
1540 1540 1540 1541 1541 1542 1543 1543 1543 1543 1543 1543 1543 1544 1544 1544 1544 1544 1545 1546 1546 1546 1547 1547 1547 1547 1548 1548 1548 1548 1548 1549 1549 1549 1550 1550 1549 1550 1550 1551 1550 1550 1550 1549 1549 1549 1549 1549 1549 1548 1548 1548 1549 1548 1547 1546 1545 1545 1544 1544 1543 1543 1542 1542 1541 1540 1540 1539 1538 1538 1538 1538 1539 1539
1539 1540 1540 1540 1541 1541 1541 1542 1542 1542 1542 1543 1543 1543 1543 1543 1543 1544 1544 1545 1545 1545 1545 1546 1546 1546 1546 1546 1547 1547 1547 1547 1547 1548 1548 1548 1548 1548 1548 1549 1549 1548 1548 1547 1547 1547 1548 1547 1547 1547 1547 1547 1547 1547 1547 1546 1544 1544 1543 1543 1542 1541 1541 1540 1540 1539 1538 1538 1537 1537 1537 1537 1537 1538
1539 1538 1539 1540 1540 1540 1540 1540 1541 1541 1542 1542 1542 1542 1542 1543 1543 1544 1544 1544 1544 1544 1545 1545 1545 1545 1545 1545 1545 1545 1545 1546 1546 1546 1546 1546 1546 1546 1546 1546 1546 1546 1546 1546 1546 1546 1546 1546 1545 1546 1546 1546 1547 1547 1547 1546 1544 1543 1543 1542 1541 1540 1540 1539 1539 1538 1538 1537 1537 1536 1536 1536 1536 1536
1538 1538 1538 1539 1539 1539 1539 1540 1540 1541 1542 1542 1542 1542 1542 1542 1543 1543 1543 1544 1544 1544 1544 1544 1544 1543 1543 1543 1543 1544 1544 1544 1544 1545 1545 1545 1545 1545 1545 1545 1545 1545 1545 1545 1545 1545 1545 1545 1545 1545 1545 1546 1546 1546 1546 1545 1545 1544 1543 1542 1541 1540 1539 1538 1538 1537 1537 1536 1536 1536 1535 1536 1535 1535
1537 1537 1538 1538 1538 1539 1539 1539 1540 1541 1542 1542 1542 1542 1542 1542 1543 1543 1543 1543 1543 1543 1543 1542 1542 1542 1542 1542 1542 1542 1543 1543 1543 1544 1544 1544 1544 1544 1544 1544 1545 1545 1545 1545 1545 1545 1545 1545 1545 1545 1545 1545 1545 1545 1545 1545 1544 1543 1542 1542 1542 1540 1539 1538 1538 1537 1537 1536 1536 1535 1535 1534 1534 1533
1536 1537 1537 1537 1538 1538 1539 1540 1541 1541 1542 1542 1542 1542 1542 1542 1543 1543 1543 1543 1543 1542 1542 1541 1541 1541 1541 1541 1541 1541 1542 1542 1543 1543 1544 1544 1544 1544 1544 1545 1545 1545 1545 1545 1545 1545 1545 1544 1544 1544 1544 1544 1544 1543 1543 1544 1544 1543 1542 1541 1541 1540 1539 1538 1538 1537 1536 1536 1535 1534 1534 1533 1532 1531
1536 1536 1536 1537 1537 1538 1539 1540 1541 1541 1541 1541 1542 1542 1542 1542 1542 1542 1542 1542 1542 1541 1541 1541 1540 1540 1540 1540 1541 1541 1542 1542 1542 1543 1543 1544 1544 1544 1544 1545 1545 1545 1544 1544 1544 1544 1544 1543 1543 1543 1543 1543 1543 1543 1543 1543 1543 1543 1542 1541 1540 1539 1539 1538 1537 1536 1535 1534 1534 1533 1532 1532 1531 1530
1536 1536 1536 1537 1537 1538 1539 1540 1540 1541 1541 1541 1541 1541 1541 1541 1541 1541 1541 1541 1541 1541 1541 1540 1540 1540 1540 1540 1541 1541 1542 1542 1543 1543 1543 1544 1544 1544 1544 1545 1544 1545 1544 1544 1544 1543 1543 1543 1542 1542 1542 1542 1542 1542 1542 1542 1542 1541 1541 1540 1539 1539 1538 1537 1537 1536 1534 1533 1533 1532 1531 1531 1530 1529
1537 1537 1537 1537 1538 1539 1540 1540 1540 1540 1540 1540 1541 1541 1541 1541 1541 1540 1540 1540 1541 1541 1540 1540 1540 1540 1540 1540 1541 1541 1542 1542 1543 1543 1543 1543 1544 1544 1544 1544 1544 1545 1545 1544 1543 1543 1542 1542 1541 1541 1541 1541 1541 1541 1542 1542 1541 1541 1540 1539 1539 1538 1538 1537 1536 1534 1533 1532 1532 1531 1530 1530 1528 1527
1537 1537 1538 1538 1539 1539 1540 1540 1540 1540 1540 1540 1540 1540 1540 1540 1540 1540 1540 1540 1540 1540 1540 1540 1540 1540 1540 1541 1541 1542 1542 1542 1542 1543 1543 1543 1543 1544 1544 1544 1544 1544 1544 1544 1543 1542 1542 1542 1542 1542 1542 1541 1541 1540 1541 1541 1541 1540 1540 1539 1538 1538 1537 1536 1535 1534 1533 1532 1531 1530 1529 1529 1528 1526
1536 1537 1537 1538 1539 1539 1539 1539 1540 1540 1540 1540 1540 1540 1540 1539 1539 1539 1539 1540 1540 1540 1540 1540 1540 1540 1540 1541 1541 1541 1542 1542 1542 1543 1543 1543 1544 1544 1544 1544 1543 1543 1543 1543 1543 1542 1543 1543 1544 1544 1544 1543 1542 1541 1540 1540 1540 1540 1539 1539 1538 1537 1536 1535 1534 1533 1532 1531 1530 1529 1528 1527 1526 1525
1535 1536 1536 1537 1538 1538 1539 1539 1539 1539 1539 1539 1539 1539 1539 1539 1539 1539 1539 1539 1539 1539 1539 1539 1540 1540 1540 1540 1541 1541 1542 1542 1543 1543 1543 1544 1544 1544 1543 1543 1543 1543 1543 1543 1543 1543 1544 1544 1545 1545 1545 1544 1543 1542 1541 1539 1538 1538 1538 1538 1537 1536 1535 1534 1533 1532 1531 1531 1530 1528 1527 1526 1525 1524
1535 1535 1536 1537 1537 1538 1538 1538 1538 1538 1538 1538 1538 1538 1538 1538 1538 1539 1539 1539 1539 1539 1539 1539 1539 1539 1540 1540 1541 1541 1542 1542 1543 1543 1544 1544 1543 1543 1543 1543 1543 1543 1543 1543 1544 1544 1545 1546 1545 1545 1544 1543 1543 1542 1542 1540 1539 1538 1537 1537 1536 1535 1534 1533 1532 1531 1530 1529 1528 1527 1526 1525 1524 1522
1535 1535 1536 1536 1537 1537 1537 1537 1537 1537 1537 1537 1537 1537 1537 1537 1538 1538 1538 1539 1539 1539 1539 1539 1539 1540 1540 1540 1541 1542 1542 1543 1543 1543 1543 1543 1543 1543 1543 1543 1543 1543 1544 1545 1546 1546 1546 1546 1545 1544 1543 1543 1542 1542 1542 1541 1540 1538 1537 1536 1535 1534 1533 1532 1531 1530 1529 1528 1527 1526 1525 1523 1522 1521
1534 1535 1535 1535 1535 1536 1536 1536 1536 1536 1536 1536 1537 1537 1537 1537 1537 1538 1538 1538 1539 1539 1539 1539 1540 1540 1540 1541 1541 1542 1543 1543 1543 1543 1543 1543 1543 1543 1543 1543 1544 1545 1546 1547 1547 1547 1547 1545 1544 1543 1543 1543 1542 1542 1541 1540 1540 1539 1537 1536 1534 1533 1532 1531 1531 1530 1529 1528 1526 1525 1523 1522 1520 1519
1534 1534 1534 1534 1535 1535 1535 1535 1536 1536 1536 1536 1536 1537 1537 1537 1537 1538 1538 1539 1539 1539 1539 1540 1540 1540 1541 1541 1542 1542 1543 1543 1543 1543 1543 1543 1543 1543 1543 1544 1545 1547 1547 1547 1547 1547 1546 1544 1543 1543 1542 1542 1541 1541 1540 1540 1539 1539 1537 1535 1534 1532 1532 1531 1530 1529 1528 1527 1525 1524 1522 1521 1519 1518
1535 1535 1535 1534 1535 1535 1535 1535 1535 1536 1536 1536 1536 1536 1537 1537 1537 1538 1538 1539 1539 1539 1540 1540 1540 1541 1542 1542 1542 1543 1543 1543 1543 1543 1543 1543 1543 1544 1545 1546 1547 1547 1547 1547 1546 1545 1544 1543 1542 1542 1541 1541 1540 1540 1540 1539 1539 1538 1537 1535 1533 1532 1531 1530 1529 1528 1527 1526 1524 1523 1522 1520 1519 1518
1536 1536 1535 1535 1535 1535 1535 1535 1535 1536 1536 1536 1537 1537 1537 1538 1538 1538 1539 1539 1539 1540 1540 1541 1542 1542 1542 1543 1543 1543 1543 1543 1543 1544 1544 1544 1545 1545 1546 1547 1547 1547 1547 1546 1545 1544 1543 1542 1541 1541 1541 1541 1541 1540 1540 1539 1538 1537 1536 1535 1533 1532 1531 1529 1528 1527 1526 1525 1523 1522 1521 1519 1518 1517
1537 1537 1536 1536 1536 1536 1536 1536 1536 1536 1536 1537 1537 1538 1538 1539 1539 1539 1540 1540 1540 1541 1542 1542 1543 1543 1543 1543 1543 1543 1544 1544 1544 1544 1545 1545 1546 1546 1547 1547 1547 1547 1546 1546 1545 1544 1543 1542 1541 1541 1541 1541 1540 1540 1539 1538 1538 1537 1536 1534 1533 1532 1530 1529 1528 1526 1525 1523 1522 1521 1520 1518 1517 1516
1538 1538 1537 1537 1537 1537 1536 1536 1536 1537 1537 1537 1538 1538 1539 1539 1540 1540 1540 1541 1541 1542 1542 1543 1543 1544 1544 1544 1544 1544 1544 1544 1545 1545 1546 1546 1547 1547 1547 1547 1547 1546 1546 1545 1545 1544 1543 1542 1541 1541 1541 1540 1539 1539 1538 1538 1537 1536 1535 1534 1532 1531 1530 1528 1527 1526 1525 1523 1521 1520 1519 1518 1517 1516
1540 1539 1539 1538 1538 1537 1537 1537 1537 1537 1538 1538 1539 1539 1540 1540 1541 1541 1541 1542 1542 1543 1543 1543 1544 1544 1544 1544 1544 1544 1545 1545 1545 1546 1546 1547 1547 1548 1548 1548 1547 1546 1545 1545 1544 1543 1543 1542 1542 1541 1540 1540 1539 1538 1538 1537 1537 1536 1535 1534 1532 1531 1530 1528 1526 1526 1525 1523 1521 1519 1518 1517 1516 1515